Zurück zum Katalog

GALAXY 26

TELSTAR 6

AktivKommunikationGEO
NORAD 25626·PAYLOAD·🇺🇸 United States

Gestartet Feb 15, 1999 von Baikonur Cosmodrome

Loading…

TLE

AktuellSource: Space-Track

Epoche: Sep 14, 2026, 12:02 UTC

1 25626U 99005A   26257.50157976  .00000045  00000-0  00000-0 0  9995
2 25626  11.8285  45.9899 0005458 149.9453 221.0045  0.98995848 44887

Verfolge GALAXY 26 in Echtzeit mit AllMySat

Download on the App Store